Dewpoint
37 36 34 36 35 34 34 35 34 34 36 35 34 34 34 36 39 39 40 40 40 40 40 39 40 43 46 49 49 55 56 50 49 46 44 43 40 37 33 31 29 28 28 28
34 32 34 35 35 35 34 33 32 31 32 34 33 33 33 34 35 37 39 40 40 41 38 39 42 45 49 51 51 53 52 49 49 48 43 48 37 32 29 29 26 26 25 26
31 31 34 34 32 32 31 31 29 29 31 32 31 27 23 24 28 30 32 35 38 40 40 39 41 46 50 51 52 52 49 48 46 41 37 35 31 27 27 25 25 25 24 25
35 35 33 32 31 32 29 32 32 32 31 25 29 22 22 24 23 26 28 33 37 40 39 39 41 48 50 51 52 50 48 46 42 40 37 34 34 27 27 24 24 23 23 23
32 34 34 33 31 32 30 32 32 33 31 31 28 27 23 25 25 27 35 37 38 40 40 39 43 47 50 51 50 49 46 44 41 39 37 36 32 28 25 22 20 20 20 21
33 36 35 32 32 32 34 32 32 33 32 25 25 26 21 20 21 22 24 31 37 39 39 40 44 50 50 50 48 46 44 42 40 38 36 34 28 23 22 21 20 21 21 21
35 35 37 37 32 34 33 34 25 23 24 20 24 25 24 21 23 24 24 32 37 39 39 44 47 49 48 48 47 45 44 41 39 37 36 31 26 22 20 20 20 18 17 18
27 23 33 37 32 30 31 31 26 18 16 17 22 19 22 27 28 28 27 34 36 38 40 44 47 49 49 48 46 45 43 40 38 35 32 29 26 25 23 22 19 17 16 16
30 26 35 35 35 32 34 30 31 29 30 26 24 25 26 31 27 31 30 28 30 38 41 44 48 49 48 46 45 44 41 37 34 30 27 24 23 22 20 16 16 16 15 13
29 27 31 34 36 36 35 34 28 29 20 19 19 20 21 26 28 32 32 33 32 38 41 44 47 46 45 44 40 39 37 33 27 24 22 20 17 15 15 14 13 12 11 12
32 31 27 34 33 29 34 33 34 31 29 17 14 17 28 30 32 35 35 34 35 39 41 45 45 42 38 37 36 33 29 25 21 19 16 15 14 13 11 11 11 11 11 11
33 33 27 26 31 33 31 30 30 24 20 24 21 18 32 35 37 37 37 38 38 40 43 44 41 37 36 33 31 29 25 21 18 15 14 13 12 11 10 10 11 11 11 13
33 32 26 26 30 33 33 33 29 28 29 22 18 15 19 24 33 39 40 41 42 42 41 39 37 36 33 30 26 23 20 16 15 14 13 13 12 11 11 11 12 12 13 13
36 35 30 25 27 32 30 32 34 31 27 22 22 22 22 25 37 40 40 41 42 42 41 40 37 34 31 27 23 19 15 14 14 14 13 13 13 12 13 14 13 14 14 13
36 31 32 33 33 33 33 32 33 31 28 24 21 21 22 34 36 41 40 44 44 44 40 38 36 32 29 24 20 17 15 15 14 14 15 15 15 15 15 15 14 14 13 13
39 31 33 31 33 34 32 34 34 31 30 29 27 26 30 36 40 41 42 42 44 41 41 38 35 32 28 23 19 16 15 15 15 16 17 16 16 16 15 14 13 12 13 14
36 33 33 29 34 33 31 32 33 33 31 29 28 28 29 31 39 39 38 38 40 41 41 38 35 32 28 23 18 16 15 16 16 17 17 16 16 15 14 12 11 11 12 13
36 35 34 31 34 28 36 41 34 33 32 32 31 33 38 40 38 38 37 38 40 41 41 39 36 32 27 21 18 16 16 17 17 17 16 16 15 13 12 9 9 10 12 13
36 36 34 32 31 34 30 39 35 33 32 33 32 33 36 38 36 35 37 39 40 41 41 39 36 31 24 19 17 16 17 17 17 15 15 13 12 10 9 8 9 11 13 13
37 37 35 33 29 26 27 30 40 39 35 39 39 37 38 37 34 34 38 39 40 40 39 36 31 26 20 17 16 16 16 15 15 14 13 12 11 9 7 9 11 13 13 12
35 35 33 33 29 29 33 32 40 32 29 32 40 40 38 38 36 35 34 33 34 35 32 29 27 23 18 16 16 15 14 14 14 13 12 11 9 8 10 12 13 13 12 12
31 31 32 32 29 23 32 32 29 30 33 35 35 38 40 36 34 32 31 31 30 29 27 23 20 17 16 16 15 14 13 13 12 12 10 8 9 12 14 14 14 13 13 13
31 32 31 31 29 32 35 33 35 35 34 34 34 35 35 33 32 30 27 26 24 23 22 20 17 15 15 15 14 12 12 12 10 8 7 10 12 13 14 13 13 14 14 14
33 36 35 34 34 35 36 35 36 35 35 35 36 35 34 32 29 26 24 23 22 21 19 18 16 14 13 12 12 11 11 10 7 6 10 15 13 13 13 13 14 16 15 15
35 36 35 34 35 34 34 34 35 35 35 35 35 34 32 29 28 26 23 22 20 19 18 17 15 14 12 11 11 10 9 7 6 9 11 13 14 13 13 14 14 17 17 18
36 36 35 34 36 34 32 35 35 35 34 34 34 33 33 30 28 25 23 21 20 18 17 15 13 12 11 10 10 9 9 8 8 9 14 15 14 14 14 14 15 18 19 21
Lifted_Index
8 7 6 7 7 7 7 6 6 6 7 6 6 6 7 7 7 7 7 6 6 5 4 3 2 2 2 3 3 2 1 -1 -2 -3 -4 -4 -3 -2 -2 -2 -1 -0 2 3
7 7 7 8 8 7 7 6 6 6 7 7 6 6 7 8 8 8 8 7 6 5 4 3 3 2 2 2 3 2 1 -1 -2 -3 -3 -3 -3 -2 -2 -2 -1 1 4 6
7 7 8 8 8 7 7 6 6 7 7 7 6 5 5 7 8 8 8 8 7 6 5 4 3 2 2 2 3 3 2 -1 -2 -3 -3 -3 -2 -1 -1 -0 1 3 6 9
7 7 7 7 7 7 7 7 7 7 7 6 6 4 4 6 6 7 8 8 7 7 6 5 4 3 2 2 3 3 2 1 -1 -2 -3 -2 -2 -1 -0 1 2 4 8 10
6 7 7 7 7 7 7 7 7 7 6 6 5 4 4 5 5 6 7 8 7 6 6 5 4 3 2 2 2 2 3 2 0 -1 -2 -2 -1 -0 1 1 2 5 9 11
6 7 7 7 7 6 6 6 5 5 4 4 5 5 4 5 6 6 7 7 7 6 5 5 4 3 2 2 1 2 2 2 1 -1 -1 -1 -1 0 1 1 3 7 10 10
6 6 7 7 6 5 5 4 3 2 2 3 4 5 5 6 7 7 7 7 7 6 5 4 4 3 2 1 1 1 1 1 0 -1 -1 -1 -0 0 1 3 6 9 10 10
5 5 6 5 4 4 3 2 1 1 1 2 3 4 5 7 7 7 6 7 7 6 5 4 3 3 2 1 0 0 0 0 -1 -1 -1 -0 1 2 4 7 9 10 10 10
4 4 5 5 4 3 2 2 1 0 0 1 2 3 5 6 6 5 5 6 6 5 4 3 2 2 1 1 0 -0 -0 -1 -1 -0 1 2 4 6 8 9 10 10 11 11
5 5 5 5 4 3 3 2 1 1 0 0 1 2 3 3 3 3 4 4 5 4 3 2 2 2 1 0 0 -0 -0 -0 -0 1 3 5 7 9 10 10 10 11 11 11
6 5 5 5 4 4 3 2 2 1 1 0 1 1 2 2 2 2 2 3 3 3 3 3 2 1 1 0 0 -0 -0 -0 1 3 5 7 9 10 10 10 11 11 11 11
6 5 4 4 4 4 3 2 2 2 1 1 1 1 1 2 2 2 1 1 2 2 3 3 2 1 1 1 1 0 0 1 2 4 7 8 10 10 10 10 11 11 11 11
6 5 3 2 3 3 2 2 2 2 2 2 2 2 2 2 2 2 1 1 1 2 2 2 2 1 1 1 1 1 1 2 4 6 8 9 10 10 10 10 11 11 11 11
5 4 3 2 2 3 2 2 2 2 2 2 2 2 2 3 3 2 2 2 1 1 1 1 2 2 2 2 2 3 3 5 6 7 8 9 10 10 11 11 11 11 11 11
4 3 3 3 3 3 2 2 2 2 2 2 3 3 3 3 4 3 2 2 1 1 1 1 1 2 3 3 4 4 5 6 7 8 9 10 10 11 11 11 11 11 12 12
4 3 3 3 2 2 2 2 3 3 3 3 3 3 4 4 4 3 2 2 1 1 1 1 1 2 3 4 4 5 6 7 8 9 10 10 10 11 11 11 11 11 12 13
4 4 3 2 1 1 1 2 3 3 4 4 4 4 5 5 4 4 3 3 2 2 1 1 2 2 3 4 5 6 7 8 9 9 9 10 10 10 11 11 11 12 13 14
4 4 3 2 1 1 1 2 2 3 4 4 5 4 4 4 4 4 3 3 3 2 2 2 2 3 3 4 5 6 7 8 8 8 9 10 10 11 11 11 12 12 14 15
4 4 3 2 1 1 2 2 2 2 3 4 4 4 3 3 3 3 3 3 3 3 2 2 2 3 3 4 5 6 7 7 7 8 9 10 11 11 11 12 12 14 16 16
4 4 3 2 1 1 2 2 2 2 2 2 2 3 2 2 2 2 2 3 3 3 3 2 2 3 3 4 5 5 6 6 7 8 10 11 11 12 12 13 14 16 17 17
3 3 3 2 2 2 2 3 2 2 2 2 2 2 2 2 2 2 2 2 3 3 2 2 2 3 3 4 5 5 6 7 8 10 11 12 12 13 13 15 16 17 17 17
3 3 2 2 2 2 2 3 3 3 3 3 2 1 1 1 2 2 2 3 2 2 2 2 2 3 3 4 5 5 6 8 9 11 11 12 13 14 16 17 17 17 17 16
3 2 2 2 2 2 3 3 3 3 3 3 2 1 1 1 1 2 2 2 2 2 2 2 2 3 4 5 6 6 8 9 10 11 12 12 14 16 17 18 17 17 16 16
2 2 2 2 2 2 2 2 3 3 3 3 2 2 1 1 2 2 2 2 2 2 2 2 3 3 4 6 7 9 10 11 11 12 12 14 15 17 18 18 17 17 17 17
2 2 2 2 2 2 2 2 2 2 3 3 2 2 2 2 2 2 2 2 2 3 3 4 4 5 6 7 9 11 12 12 12 12 14 15 17 17 17 17 17 17 18 19
2 2 2 2 2 1 1 1 2 2 3 3 2 2 2 2 2 2 2 3 3 4 4 5 6 7 8 9 10 12 12 12 12 13 15 16 17 17 17 17 17 18 20 21